User: anonymous   Login
Location: Brede
(50.9167°N, 0.6000°E)
Time: 01:43:14
(UTC+00:00)
Language:

S-56A Canister/Altair - Orbit

View from above orbital plane
View from above orbital plane
View from above satellite
View from above satellite

Ground track
Ground track

The orbit data is extracted from the following two-line orbital elements,

1 00082U 61004B   21337.46833098 -.00000118  00000-0 -54513-4 0  9992
2 00082  38.8578  21.0085 1174755 140.8135 228.3821 12.26012647873352
Epoch (UTC): 03 December 2021 11:14:23
Eccentricity: 0.1174755
inclination: 38.8578°
perigee height: 633 km
apogee height: 2500 km
right ascension of ascending node: 21.0085°
argument of perigee: 140.8135°
revolutions per day: 12.26012647
mean anomaly at epoch: 228.3821°
orbit number at epoch: 87335

The dashed part of the orbit path shows where the satellite is in the earth's shadow,  

DLR